Tracking 17151 objects as of 4-May-2015
HD Live streaming from Space Station

GONETS M 03

Track GONETS M 03 now!
10-day predictions
GONETS M 03 is classified as:


NORAD ID: 38734
Int'l Code: 2012-041B
Perigee: 1,488.0 km
Apogee: 1,515.3 km
Inclination: 82.5 °
Period: 115.9 minutes
Semi major axis: 7872 km
RCS: 1.8381 m2 (large)
Launch date: July 28, 2012
Source: Commonwealth of Independent States (former USSR) (CIS)

Gonets-M1 is a telecoms satellites.
Your satellite tracking list
Your tracking list is empty





NASA's NSSDC Master Catalog

Two Line Element Set (TLE):
1 38734U 12041B   15124.04390412  .00000024  00000-0  10000-3 0  9999
2 38734 082.4710 087.0126 0017295 271.7691 088.1406 12.42857599125467

Source of the keplerian elements: AFSPC

N2YO: 5207